Regional Weather Roundup
Issued by NWS Upton, NY

Current Version | Previous Version | Graphics & Text | Print | Product List | Glossary Off
Versions: 1 2 3 4 5 6 7 8 9 10 11 12 13 14 15 16 17 18 19 20 21 22 23 24 25 26 27

000
ASUS41 KOKX 251609
RWROKX

REGIONAL WEATHER ROUNDUP
NATIONAL WEATHER SERVICE NEW YORK NY
1200 PM EDT SUN JUN 25 2017

NOTE: "FAIR" INDICATES FEW OR NO CLOUDS BELOW 12,000 FEET WITH NO
SIGNIFICANT WEATHER AND/OR OBSTRUCTIONS TO VISIBILITY.

NYZ071-072-176-178-NJZ106-104-251700-
NEW YORK CITY METRO AREA

CITY           SKY/WX    TMP DP  RH WIND       PRES   REMARKS
Central Park   PTSUNNY   80  59  48 CALM      30.01F
Bronx Bot Gard   N/A     81  52  36 SE2       29.99S
LaGuardia APRT PTSUNNY   82  53  36 W7        29.97F
Kennedy INTL   PTSUNNY   79  60  52 S12       30.00S
Breezy Point     N/A     73 N/A N/A S7          N/A
Newark/Liberty PTSUNNY   81  56  42 VRB7      29.98S
Teterboro      PTSUNNY   81  53  37 SW8       29.96F
$$

NYZ177-179-078>081-251700-
LONG ISLAND NEW YORK

CITY           SKY/WX    TMP DP  RH WIND       PRES   REMARKS
Jones Beach      N/A     73 N/A N/A S9          N/A
Matinecock PT  NOT AVBL
Farmingdale    NOT AVBL
MacArthur/ISP  MOSUNNY   80  60  50 S9        29.98F
Shirley        SUNNY     79  62  56 S10       29.99S
Mt Sinai Harb    N/A    N/A N/A N/A NW1         N/A
Westhampton    MOSUNNY   79  58  48 S10       30.00S
East Hampton   FAIR      79  53  41 W5        29.98S
Montauk        NOT AVBL
$$

NYZ052-065-067-251700-
HUDSON VALLEY

CITY           SKY/WX    TMP DP  RH WIND       PRES   REMARKS
White Plains   MOSUNNY   81  54  39 SW7       29.98
Larchmont Harb   N/A     75 N/A N/A E6          N/A
Croton O-T Hud   N/A     79 N/A N/A S3G9        N/A
Newburgh       MOSUNNY   77  61  57 W12       29.99F
Montgomery     MOSUNNY   78  56  46 W7G16     29.97F
Poughkeepsie   SUNNY     78  56  46 SW8       29.96S
Albany         PTSUNNY   75  58  55 SW8       29.95F
$$

NJZ001-105-106-008-010-013-015-019>022-104-251700-
NEW JERSEY

CITY           SKY/WX    TMP DP  RH WIND       PRES   REMARKS
Newark/Liberty PTSUNNY   81  56  42 VRB7      29.98S
Teterboro      PTSUNNY   81  53  37 SW8       29.96F
Caldwell       MOSUNNY   82  55  39 SW8       29.98F
Somerville     MOSUNNY   80  58  46 VRB6      29.97F
Linden         FAIR      81  51  35 W5        29.98F
Perth Amboy      N/A     77 N/A N/A SE5         N/A
Sussex         SUNNY     79  59  50 VRB7      29.98F
Andover          N/A     77  55  46 VRB3      30.00S
Trenton        SUNNY     80  57  45 CALM      29.99F
Millville      MOSUNNY   83  63  50 VRB7      30.01S
Atlantic City  MOSUNNY   82  56  40 VRB5      30.00S
Wrightstown    MOSUNNY   86  54  32 W8        29.99F
Toms River     MOSUNNY   85  54  34 VRB3      30.00F
Belmar         SUNNY     79  56  45 S7        30.00F
$$

PAZ047>061-062-071-251700-
EASTERN PENNSYLVANIA

CITY           SKY/WX    TMP DP  RH WIND       PRES   REMARKS
Philadelphia   PTSUNNY   82  57  42 SW10      30.00F
Allentown      MOSUNNY   78  59  51 SW9       30.00S
Scranton       MOSUNNY   77  55  46 SW15G24   30.00F
$$

CTZ002-004>006-009-010-012-RIZ004-006-007-MAZ004-011-015-251700-
SOUTHERN NEW ENGLAND
 IN CT

CITY           SKY/WX    TMP DP  RH WIND       PRES   REMARKS
Bradley INTL   PTSUNNY   77  56  48 VRB7      29.95F
Hartford       MOSUNNY   81  57  43 SW8       29.95F
Danbury        SUNNY     78  55  44 SW10      29.99F
Wtrbury/Oxford MOSUNNY   77  54  44 VRB6      30.00F
Bridgeport     SUNNY     79  59  50 S10       29.98S
Meriden        SUNNY     79  55  43 VRB5      29.96F
New Haven      MOSUNNY   75  59  57 S9        29.98F
Chester        FAIR      77  57  50 SW10      29.98S
Groton         SUNNY     74  58  57 SW14      29.96S
Wilimantic     SUNNY     81  54  39 NW9       29.96F

 IN RI

CITY           SKY/WX    TMP DP  RH WIND       PRES   REMARKS
Providence     MOSUNNY   81  55  40 SW12      29.95F
Block Island   MOSUNNY   76  57  51 W9        29.99R
Westerly       SUNNY     80  59  48 SW9       29.97S
 IN MA

CITY           SKY/WX    TMP DP  RH WIND       PRES   REMARKS
Boston         MOSUNNY   80  51  36 W10       29.93F
Worcester      SUNNY     75  50  41 SW10      29.97F
Westfield      SUNNY     81  54  39 SW6       29.94F
Provincetown   SUNNY     77  56  48 SW6       29.95F
Nantucket      SUNNY     77  63  61 VRB5      29.96F
$$

ANZ330-335-338-340-345-350-353-355-251700-
COASTAL MARINE OBSERVATIONS


STATION/POSITION TIME  SKY/WX   TEMP    WIND        PRES    VSBY  WAVE
                                AIR SEA DIR/SP/G                  HT/PER
                 (UTC)          (F)     (DEG/KT/KT) (MB)    (MI)  (FT/S)
NY HARB ENTRANCE 1450            71 70   CALM  /  2 1015.7          3/ 7
20 S FIRE ISLAND 1550            71 72   CALM  /  2 1015.4          3/ 8
GREAT SOUTH BAY  1530            73 78  200/  8/  8   N/A
23 SSW MONTAUK P 1450            68 66              1015.6          4/ 8
15 E BARNEGAT LI 1530               69                N/A           3/ 8
HUDSON CANYON    1450            69 69   10/  8/ 10 1015.3          3/ 8
KINGS POINT      1542            77 65  200/  5/  5 1015.1
EXECUTION ROCKS  1545            76     120/  2/  4   N/A
CENTRAL LI SOUND NOT AVBL
EASTERN LI SOUND NOT AVBL
ROBBINS REEF     1536                   160/ 15/ 15 1016.1
$$


>>>>>>>>>>>>>>>>>>>>>>>>>>>> KEY <<<<<<<<<<<<<<<<<<<<<<<<<<<
>                                                          <
>     SKY/WX - Sky Condition/Present Weather               <
>     TMP    - Temperature in Fahrenheit                   <
>     DP     - Dew Point in Fahrenheit                     <
>     RH     - Relative Humidity in Percent                <
>     WIND   - Direction (from) and Speed in MPH           <
>     PRES   - Mean Sea Level Pressure (inches of Hg)      <
>     WCI    - Wind Chill Index                            <
>     VSB    - VISIBILITY IN MILES                         <
>     HX     - HEAT INDEX                                  <
>     TC     - TEMPERATURE IN CELSIUS                      <
>     VRB    - VARIABLE WIND DIRECTION                     <
>                                                          <
>>>>>>>>>>>>>>>>>>>>>>>>>>>> KEY <<<<<<<<<<<<<<<<<<<<<<<<<<<




USA.gov is the U.S. government's official web portal to all federal, state and local government web resources and services.